Theta_e
322 321 324 323 320 322 327 334 340 339 337 339 342 343 345 341 340 338 337 339 337 336 333 327 325 324 322 319 315 314 312 311 313 316 314 314 314 315 315 314 314 314 314 313
322 325 324 322 323 333 336 338 339 337 335 337 339 340 338 337 338 334 334 339 337 335 332 328 325 325 323 320 316 315 312 311 314 314 314 313 313 314 314 314 314 315 313 312
324 325 324 325 333 336 336 336 338 339 339 338 338 338 339 336 336 337 335 335 336 334 333 329 326 324 323 320 317 315 313 311 312 312 313 314 314 314 314 314 315 314 312 312
325 323 324 326 330 329 334 334 336 337 332 337 336 335 336 336 334 334 334 332 334 334 331 329 326 324 322 319 318 316 313 311 312 313 314 314 314 314 314 315 313 312 312 311
325 324 325 326 328 330 334 333 333 333 335 335 338 334 330 336 336 334 331 331 331 331 330 328 325 325 323 319 318 316 313 312 312 314 314 314 314 315 314 314 311 312 312 311
323 323 324 326 331 332 331 330 328 329 327 333 335 334 335 336 335 334 333 332 332 328 328 327 325 325 324 318 318 316 314 313 312 314 314 314 315 314 314 314 313 313 312 311
323 328 325 331 332 329 327 327 332 334 333 333 336 338 334 332 331 334 336 333 331 326 323 321 321 324 323 319 318 316 315 314 313 314 315 315 315 315 314 314 314 313 312 311
325 329 327 325 330 330 330 325 327 333 331 331 336 340 338 332 330 333 332 329 324 322 321 319 320 323 323 320 318 316 315 314 313 314 314 315 316 316 315 314 313 311 312 311
330 330 331 330 325 326 329 328 323 332 333 338 337 337 333 333 334 327 324 323 323 322 320 319 320 322 323 320 318 316 315 314 313 313 314 315 315 316 316 314 313 311 311 309
327 332 333 332 328 326 326 322 325 325 335 340 338 340 340 336 335 327 324 323 321 321 320 318 319 321 323 320 318 316 316 315 313 313 314 315 314 316 314 313 313 312 311 310
329 331 332 331 330 329 325 326 322 323 329 335 338 335 334 334 333 330 323 321 321 322 321 318 319 320 321 320 317 316 315 315 313 313 313 314 313 315 315 314 313 313 313 312
329 327 332 332 329 329 325 325 322 326 330 333 332 335 332 332 331 330 324 321 320 321 319 318 318 317 318 318 316 316 315 315 315 313 313 314 313 314 315 315 314 313 313 312
328 328 330 328 327 326 330 326 323 323 327 336 336 329 334 332 331 328 325 321 321 321 318 316 316 316 316 314 315 315 315 315 315 314 314 314 314 313 314 315 315 315 313 311
327 326 327 329 327 325 332 328 326 327 330 330 334 333 336 335 333 330 325 321 320 321 319 315 315 315 316 315 315 316 315 315 315 315 315 314 314 314 314 315 315 316 313 313
323 329 328 326 329 330 331 328 327 328 328 332 329 335 333 334 331 331 325 318 320 320 318 316 315 315 316 316 316 316 315 315 315 314 315 314 314 314 314 314 315 315 314 314
324 326 331 332 332 332 333 329 328 328 333 336 336 336 331 331 327 326 322 320 321 322 320 317 316 316 316 317 317 316 316 316 316 314 314 314 314 314 314 314 314 314 315 315
327 328 327 331 333 331 330 331 329 333 333 334 337 333 331 332 330 328 323 320 321 321 319 318 318 317 317 318 318 317 317 316 316 314 314 314 314 314 314 314 314 314 315 315
326 326 324 327 330 333 328 331 330 335 334 333 332 331 332 331 329 327 325 320 320 319 318 318 317 318 318 319 318 317 317 316 315 314 314 314 314 314 315 315 315 314 313 314
324 327 330 331 331 329 331 334 334 336 335 330 331 332 331 326 328 328 324 320 319 319 319 318 319 319 319 319 319 318 317 316 315 314 314 314 314 314 314 314 315 314 313 313
331 327 330 330 334 335 332 332 331 329 333 329 330 331 330 328 334 330 321 319 319 320 320 320 320 320 319 319 318 317 317 315 315 315 314 314 314 314 315 314 314 313 313 314
334 334 337 334 335 333 330 332 331 333 334 327 328 328 326 329 327 322 318 320 320 321 321 320 321 320 320 319 318 318 317 315 317 316 315 315 315 315 315 315 315 314 315 315
335 336 336 337 337 335 333 334 334 334 328 326 326 327 326 325 323 320 320 320 321 321 320 321 321 320 320 319 319 318 317 319 318 317 315 316 316 315 315 315 315 316 316 316
333 331 335 332 331 328 329 332 330 330 330 326 326 327 325 326 322 319 320 320 321 322 322 322 321 320 320 320 319 319 320 320 319 318 316 316 316 316 316 316 316 317 317 316
332 330 330 331 330 330 331 332 330 327 326 325 325 327 326 325 321 320 319 319 320 321 322 322 320 320 320 321 320 320 321 320 319 319 318 317 316 316 316 317 317 318 317 316
328 331 331 332 330 332 331 329 331 328 326 324 327 328 327 324 323 321 320 319 320 321 321 322 322 321 322 322 322 322 321 320 320 320 320 319 317 317 318 317 317 318 317 317
329 329 330 328 328 332 329 328 330 329 328 326 323 329 328 325 324 321 321 321 321 321 320 321 321 322 322 322 322 322 322 321 320 320 320 320 320 319 318 319 318 317 318 319
Wind_Speed
3 6 1 7 10 4 7 6 6 2 3 6 2 4 5 1 4 6 4 4 5 5 6 8 6 5 5 7 9 13 16 15 9 8 8 11 12 12 13 14 14 17 19 20
5 1 4 4 6 7 6 11 4 4 3 5 2 3 2 4 4 6 5 6 5 4 5 8 8 5 3 3 7 9 14 15 12 10 8 8 8 11 11 11 12 15 17 18
5 4 4 6 5 7 2 7 6 7 5 7 4 3 2 1 3 3 3 3 6 8 8 8 11 8 5 2 3 6 11 12 11 9 9 9 8 8 10 12 13 15 15 17
2 2 4 6 3 3 2 7 8 14 3 2 1 3 4 3 5 5 8 7 7 8 7 10 14 11 7 3 2 2 7 10 10 9 9 10 10 8 9 10 12 13 14 16
6 5 3 4 1 5 1 10 8 5 6 5 1 2 5 2 6 8 8 9 9 9 10 9 15 13 9 5 5 3 5 8 7 6 7 8 7 7 8 8 10 13 13 14
3 2 1 3 6 8 9 9 9 5 3 2 3 4 4 5 7 5 6 8 11 8 8 13 14 13 12 9 7 3 2 5 5 3 5 6 7 7 9 8 9 12 13 13
6 3 3 9 10 1 6 6 3 2 3 4 4 1 7 6 8 8 12 8 8 8 8 8 14 15 15 12 8 6 2 2 4 1 4 5 5 6 8 8 9 12 13 13
3 4 4 3 6 8 6 6 5 3 3 3 1 4 5 5 6 5 6 7 7 10 9 8 14 16 17 14 9 8 5 1 2 1 4 5 6 5 6 7 9 11 11 10
4 4 3 2 3 7 4 2 4 7 3 2 2 6 5 3 1 1 6 7 9 7 4 7 12 15 18 15 12 9 8 5 1 1 3 5 5 4 5 6 6 8 9 9
5 1 0 2 4 6 3 6 3 4 1 2 4 5 5 6 8 6 7 9 8 8 5 6 12 16 19 14 12 10 10 7 4 2 3 4 5 4 4 4 5 6 8 9
4 4 4 2 2 7 1 1 7 5 4 4 1 6 7 10 12 12 10 9 11 9 8 7 13 14 18 15 12 12 12 10 7 5 3 4 4 3 3 5 5 6 8 9
4 5 3 4 3 1 1 3 5 5 4 1 3 6 1 6 7 9 9 10 7 7 7 11 16 16 15 15 12 11 13 12 10 8 6 4 4 4 4 4 5 6 8 9
7 2 3 7 6 2 2 2 5 5 3 5 4 6 1 2 6 7 10 9 8 8 7 8 13 17 17 15 12 10 11 12 11 12 10 7 6 5 6 5 5 5 6 8
8 3 6 7 6 3 3 4 4 5 4 4 6 5 3 4 7 6 8 9 10 11 10 7 9 17 17 16 14 11 10 11 10 12 14 11 9 6 7 6 5 6 6 7
4 3 3 4 3 2 3 4 8 7 4 5 4 7 5 9 11 11 8 6 8 8 9 8 8 15 18 17 15 13 11 10 8 9 11 13 11 8 7 6 6 6 6 6
3 2 1 1 4 5 4 2 7 2 3 2 2 4 6 2 5 5 8 10 11 12 9 10 13 16 19 20 18 16 13 12 10 9 9 9 9 8 7 7 7 7 6 7
3 5 3 3 4 6 4 4 4 4 4 6 4 7 4 4 7 8 9 11 14 11 11 12 13 19 21 20 19 17 14 11 10 9 9 8 8 9 8 9 10 9 9 9
5 4 3 2 4 1 6 4 6 3 2 5 2 4 5 3 1 3 5 9 7 8 11 11 16 20 18 17 18 15 13 13 11 10 11 10 9 9 10 11 12 11 13 14
2 5 4 3 2 4 6 2 2 4 5 3 4 1 3 3 2 4 7 8 9 9 17 19 23 21 17 16 16 15 13 13 12 12 12 13 12 11 11 11 11 14 14 16
5 7 4 2 2 4 5 6 2 3 4 2 1 3 4 2 1 5 4 5 8 18 22 22 22 18 17 17 15 14 14 13 13 12 13 12 13 14 13 12 12 16 17 20
4 4 4 2 2 5 6 4 2 3 6 4 4 4 6 4 5 2 5 4 13 19 21 19 20 21 19 15 17 16 15 17 14 11 11 13 13 15 14 14 15 18 20 21
4 5 3 2 2 6 2 3 3 7 1 4 5 6 7 4 1 3 5 7 15 16 17 20 21 20 18 16 18 19 18 16 15 14 15 14 15 16 16 17 19 21 22 23
1 5 4 8 6 5 3 3 3 4 6 6 4 4 7 5 5 6 6 8 13 17 19 21 23 23 20 19 20 19 19 14 15 16 18 18 17 19 19 20 22 23 23 21
3 3 3 2 2 5 6 4 5 6 7 4 1 6 7 6 8 8 5 6 12 18 21 23 23 22 23 23 22 23 21 18 16 20 22 21 21 22 23 24 24 23 22 23
4 4 4 4 5 4 3 3 3 2 1 3 4 5 10 8 8 9 7 9 15 19 20 22 24 25 27 25 26 25 25 22 23 23 26 27 26 26 26 24 25 23 23 21
4 5 5 5 6 4 4 3 3 6 5 8 8 5 7 10 8 12 9 18 18 19 17 19 21 22 25 25 26 28 27 27 27 28 30 32 31 30 30 29 29 25 26 25
Wind_Direction
351 78 149 236 222 194 122 109 115 72 105 83 20 99 119 200 259 282 235 211 219 146 153 150 141 135 89 71 55 49 42 41 44 50 44 45 43 35 28 18 12 9 11 7
25 40 196 107 94 115 105 117 93 70 57 91 156 96 159 180 222 234 231 198 180 173 168 176 179 170 177 93 54 46 39 42 58 54 53 50 38 36 26 17 13 13 8 4
115 259 318 131 122 115 104 134 169 139 122 52 108 354 291 176 245 266 230 219 192 179 186 193 198 190 176 133 64 51 44 46 56 60 66 52 48 37 28 22 18 15 6 3
221 288 38 98 155 84 120 140 122 126 109 153 23 264 284 256 276 217 213 205 188 187 192 197 200 184 178 174 189 71 51 51 59 58 50 49 50 37 21 13 17 10 6 4
263 340 42 95 50 95 64 102 99 95 93 108 251 68 261 120 267 249 234 207 202 197 191 196 200 188 178 193 199 149 64 51 58 57 46 47 47 35 20 17 16 12 8 8
245 287 165 99 39 95 153 81 47 49 75 45 243 160 266 193 208 236 221 200 196 187 185 196 196 177 181 202 202 177 92 47 38 48 32 26 28 26 18 11 3 1 4 7
347 351 62 105 82 6 94 78 36 336 7 215 200 111 246 235 212 208 198 195 187 180 171 175 176 176 186 202 200 199 186 47 21 17 355 347 354 6 12 4 355 356 359 5
107 352 164 173 162 176 179 151 151 237 212 249 231 224 253 264 256 234 174 178 152 176 172 186 180 189 193 204 203 208 211 196 3 332 332 341 343 335 350 359 3 6 6 0
140 275 304 26 119 126 208 155 158 104 29 32 260 286 298 38 56 152 158 153 176 156 186 181 174 194 200 206 207 215 214 208 248 289 304 334 338 336 340 350 358 7 13 7
206 81 206 188 106 50 134 144 76 40 126 298 287 282 242 198 214 208 188 180 178 181 149 166 191 195 204 210 211 217 218 215 213 234 281 323 346 340 352 0 354 354 358 359
138 113 278 47 180 176 108 40 49 105 123 159 284 267 221 208 191 196 202 190 185 179 172 175 185 199 204 209 214 222 220 221 223 232 256 303 336 333 329 355 358 357 356 360
184 136 162 201 306 347 111 162 134 117 208 145 153 275 96 264 207 176 195 193 186 173 169 175 187 192 192 206 216 225 227 229 230 236 246 266 301 321 310 331 344 355 359 6
186 65 61 356 353 358 211 135 101 102 82 186 141 264 1 278 224 190 181 188 171 163 165 173 180 197 194 205 211 224 237 235 239 239 244 254 270 301 318 312 328 336 353 5
91 114 151 188 205 174 186 166 149 123 124 176 228 280 280 233 217 195 196 190 174 181 183 155 184 207 203 211 211 223 233 233 249 250 244 251 261 283 308 320 320 329 339 352
101 134 156 211 247 227 235 203 173 194 169 167 254 213 260 215 211 208 192 152 164 180 182 165 195 202 210 217 219 225 232 233 248 268 249 245 256 272 297 324 328 333 315 328
10 145 124 324 10 10 268 307 180 152 151 270 129 257 226 215 120 169 182 175 192 200 181 177 198 196 212 217 221 229 238 247 256 272 244 245 252 262 287 313 324 327 319 311
79 120 82 261 3 359 348 286 200 192 178 148 169 234 169 196 215 216 187 191 200 190 171 184 195 198 213 218 222 231 242 252 249 259 239 251 250 260 278 300 310 310 311 310
122 97 91 198 24 322 247 310 236 179 205 193 251 256 213 264 4 113 191 199 199 170 166 189 191 203 212 218 223 232 247 249 244 255 247 252 259 276 277 288 300 305 307 310
68 118 80 120 180 280 308 273 126 178 255 203 232 282 94 100 86 279 211 202 188 172 179 196 200 203 206 214 219 227 242 238 248 253 257 256 262 274 287 299 287 296 314 325
56 71 108 117 140 214 246 318 296 117 302 300 170 203 148 106 14 270 196 155 150 174 188 190 194 196 205 214 214 223 233 237 249 257 260 263 267 268 284 297 301 294 303 312
29 19 110 134 180 277 236 175 299 81 238 204 196 180 159 184 206 285 117 115 169 179 185 187 184 196 210 213 215 226 234 241 255 260 262 263 269 266 276 284 288 291 298 302
156 131 177 102 104 280 29 26 128 211 260 265 192 174 189 214 219 153 152 156 166 172 176 185 190 205 216 217 219 230 238 251 254 256 257 263 265 268 273 280 287 291 296 300
231 177 185 175 214 230 232 222 244 196 193 209 204 186 188 181 176 171 182 173 183 183 187 195 204 214 219 221 223 230 247 249 248 254 256 261 266 269 272 276 283 289 294 295
243 174 184 56 258 230 252 294 254 199 206 151 211 181 164 180 170 190 186 198 189 197 200 204 209 221 230 227 230 239 251 254 254 256 259 261 264 269 271 273 277 281 284 289
197 140 176 260 275 269 268 268 221 171 204 129 186 210 190 179 190 184 186 209 210 210 212 214 216 227 239 243 241 246 252 252 252 258 262 263 264 268 273 274 275 276 278 280
186 187 162 219 214 154 245 302 187 176 204 204 201 217 210 206 211 172 188 213 216 219 224 225 234 241 252 261 260 260 260 257 254 259 264 266 267 270 273 276 282 280 275 280